Weather History for De Queen, AR

Change the Weather History Date:

Sunday, May 5, 2013

  Actual Average Record
Temperature  
Mean Temperature 52 °F 67 °F  
Max Temperature 67 °F 78 °F 92 °F (1955)
Min Temperature 37 °F 55 °F 37 °F (2013)
Degree Days  
Heating Degree Days 13 2  
Month to date heating degree days 57 10  
Since 1 July heating degree days 3038 3031  
Cooling Degree Days 0 3  
Month to date cooling degree days 3 15  
Year to date cooling degree days 63 62  
Growing Degree Days 2 (Base 50)    
Moisture  
Dew Point 40 °F    
Average Humidity 70    
Maximum Humidity 100    
Minimum Humidity 40    
Precipitation  
Precipitation 0.00 in 0.22 in 2.70 in (1961)
Month to date precipitation 0.27 1.15  
Year to date precipitation 7.55 16.72  
Snow  
Snow 0.00 in - - ()
Month to date snowfall 0.0  
Since 1 July snowfall 4.5  
Snow Depth 0.00 in    
Sea Level Pressure  
Sea Level Pressure 30.03 in    
Wind  
Wind Speed 5 mph (NW)    
Max Wind Speed 17 mph    
Max Gust Speed 26 mph    
Visibility 10 miles    
Events      
T = Trace of Precipitation, MM = Missing Value Source: NWS Daily Summary

Daily Weather History Graph

Daily Weather History Graph

Search for Another Location

Airport:

Trip Planner

Search our weather history database for the weather conditions in past years. The results will help you decide how hot, cold, wet, or windy it might be!

Date:

Astronomy

May. 05, 2013 Rise Set
Actual Time 6:24 AM CDT 8:04 PM CDT
Civil Twilight 5:57 AM CDT 8:31 PM CDT
Nautical Twilight 5:24 AM CDT 9:04 PM CDT
Astronomical Twilight 4:50 AM CDT 9:38 PM CDT
Moon 3:43 AM CDT (5/5) 4:15 PM CDT (5/5)
Length of Visible Light 14h 34m
Length of Day
13h 40m
Waning Crescent, 18% of the Moon is Illuminated
May 5
Waning Crescent
May 9
New
May 17
First Quarter
May 24
Full
May 31
Last Quarter

Hourly Weather History & Observations

Time (CDT) Temp. Windchill Dew Point Humidity Pressure Visibility Wind Dir Wind Speed Gust Speed Precip Events Conditions
12:53 AM 39.9 °F - 37.9 °F 93% 30.00 in 10.0 mi Calm Calm - N/A   Mostly Cloudy
1:53 AM 39.9 °F - 37.9 °F 93% 29.99 in 10.0 mi Calm Calm - N/A   Clear
2:53 AM 37.9 °F - 37.0 °F 97% 29.99 in 6.0 mi Calm Calm - N/A   Mostly Cloudy
3:53 AM 43.0 °F 41.3 °F 39.0 °F 86% 29.99 in 10.0 mi NNW 3.5 mph - N/A   Mostly Cloudy
4:53 AM 39.9 °F 37.8 °F 37.0 °F 89% 30.00 in 10.0 mi North 3.5 mph - N/A   Clear
5:53 AM 39.9 °F 37.8 °F 37.0 °F 89% 30.01 in 10.0 mi NNE 3.5 mph - N/A   Clear
6:53 AM 41.0 °F - 37.0 °F 86% 30.04 in 10.0 mi Calm Calm - N/A   Clear
7:53 AM 45.0 °F 43.5 °F 39.0 °F 80% 30.06 in 10.0 mi NW 3.5 mph - N/A   Clear
8:53 AM 50.0 °F - 37.9 °F 63% 30.08 in 10.0 mi Variable 6.9 mph - N/A   Clear
9:53 AM 54.0 °F - 37.0 °F 53% 30.08 in 10.0 mi Variable 4.6 mph - N/A   Partly Cloudy
10:53 AM 55.9 °F - 37.9 °F 51% 30.09 in 10.0 mi Variable 6.9 mph 18.4 mph N/A   Mostly Cloudy
11:53 AM 59.0 °F - 37.0 °F 44% 30.07 in 10.0 mi Variable 6.9 mph - N/A   Mostly Cloudy
1:53 PM 64.0 °F - 39.0 °F 40% 30.04 in 10.0 mi WNW 5.8 mph - N/A   Scattered Clouds
2:53 PM 66.0 °F - 41.0 °F 40% 30.02 in 10.0 mi West 12.7 mph 18.4 mph N/A   Mostly Cloudy
3:53 PM 66.9 °F - 43.0 °F 42% 30.00 in 10.0 mi WNW 11.5 mph 18.4 mph N/A   Mostly Cloudy
4:53 PM 66.0 °F - 42.1 °F 42% 29.99 in 10.0 mi WNW 11.5 mph 20.7 mph N/A   Partly Cloudy
5:53 PM 64.9 °F - 42.1 °F 43% 30.00 in 10.0 mi NNW 9.2 mph - N/A   Clear
6:53 PM 62.1 °F - 43.0 °F 50% 30.01 in 10.0 mi North 8.1 mph - N/A   Clear
7:53 PM 57.9 °F - 44.1 °F 60% 30.02 in 10.0 mi NW 3.5 mph - N/A   Clear
8:53 PM 55.0 °F - 44.1 °F 67% 30.03 in 10.0 mi West 3.5 mph - N/A   Clear
9:53 PM 52.0 °F - 44.1 °F 74% 30.04 in 10.0 mi West 4.6 mph - N/A   Clear
10:53 PM 51.1 °F - 44.1 °F 77% 30.04 in 10.0 mi Calm Calm - N/A   Clear
11:53 PM 48.9 °F - 44.1 °F 83% 30.04 in 10.0 mi Calm Calm - N/A   Clear